Location: Auckland
(36.8670°S, 174.7670°E)
Time: 23:37:42
(UTC+12:00)

Courier 1B Rocket - Visible Passes

Search period start: 20 July 2019 00:00
Search period end: 30 July 2019 00:00
Orbit: 920 x 1202 km, 28.2° (Epoch: 19 July)

Date Brightness Start Highest point End Pass type
(mag) Time Alt. Az. Time Alt. Az. Time Alt. Az.
20 Jul 7.6 03:27:57 13° NE 03:27:57 13° NE 03:29:34 10° ENE visible
20 Jul 6.5 05:14:20 21° NNW 05:18:10 33° NNE 05:24:29 10° ENE visible
21 Jul 6.7 04:17:19 28° NNE 04:17:19 28° NNE 04:23:15 10° ENE visible
21 Jul 6.2 06:03:42 12° WNW 06:10:15 42° N 06:16:51 10° ENE visible
22 Jul 7.6 03:20:13 15° ENE 03:20:13 15° ENE 03:21:45 10° ENE visible
22 Jul 6.2 05:06:35 30° NNW 05:09:11 39° N 05:15:53 10° ENE visible
22 Jul 6.2 06:55:23 10° WNW 07:02:22 42° N 07:08:55 10° ENE visible
23 Jul 6.6 04:09:26 32° NE 04:09:26 32° NE 04:14:46 10° ENE visible
23 Jul 6.1 05:55:48 17° WNW 06:01:20 44° N 06:08:06 10° ENE visible
24 Jul 7.7 03:12:13 14° ENE 03:12:13 14° ENE 03:13:27 10° ENE visible
24 Jul 6.0 04:58:36 38° NNW 05:00:13 43° N 05:07:10 10° ENE visible
24 Jul 6.3 06:46:28 10° WNW 06:53:26 39° N 06:59:59 10° ENE visible
25 Jul 6.6 04:01:20 33° NE 04:01:20 33° NE 04:06:06 10° ENE visible
25 Jul 6.1 05:47:42 21° WNW 05:52:22 43° N 05:59:14 10° ENE visible
26 Jul 7.8 03:04:04 13° ENE 03:04:04 13° ENE 03:04:53 10° ENE visible
26 Jul 5.9 04:50:26 43° NNW 04:51:16 45° N 04:58:21 10° ENE visible
26 Jul 6.4 06:37:38 10° WNW 06:44:26 35° NNW 06:50:55 10° NE visible
27 Jul 6.7 03:53:08 31° NE 03:53:08 31° NE 03:57:19 10° ENE visible
27 Jul 6.1 05:39:30 25° WNW 05:43:23 40° N 05:50:16 10° ENE visible
28 Jul 7.9 02:55:51 11° ENE 02:55:51 11° ENE 02:56:09 10° ENE visible
28 Jul 5.9 04:42:12 44° N 04:42:17 44° N 04:49:25 10° ENE visible
28 Jul 6.6 06:28:55 10° WNW 06:35:24 29° NNW 06:41:37 10° NE visible
29 Jul 6.9 03:44:55 27° NE 03:44:55 27° NE 03:48:26 10° ENE visible
29 Jul 6.3 05:31:16 26° NW 05:34:23 36° NNW 05:41:07 10° NE visible
